Content
SEND FEEDBACK

Daily
Averages
Monthly
Summary
United States of America

RED OAK, IOWA


Home > North America > United States > Iowa
Elevation: 1112 feet     Latitude: 41 00N     Longitude: 095 13W

WEATHER
 
SELECT A DAY
Number of Records: 405,709;   Date Range: 4/23/95 - 8/28/14
 
SHARE

PRINT THIS DATA

[ ← Previous Day ]
WEATHER ALMANAC - JANUARY 31, 2013
[ Next Day → ]
[ °C ]   °F
Weather ElementAverageHighLow
Temperature10.1 °F17.6 °F (12:35 am)3.2 °F (9:35 pm)
Dewpoint-1.9 °F8.6 °F (12:35 am)-9.4 °F (11:35 pm)
Humidity58.6 %73 % (3:35 am)48 % (4:15 pm)
Barometer30.17 in30.42 in (11:15 pm)29.92 in (12:35 am)
Wind Speed12.9 mph23 mph (10:35 am)
Wind Gust34.5 mph (1:55 pm)
Weather ElementAverage
Visibility8.4 mi
Wind DirectionWNW (299.8 °)

Weather ElementTotal
Precipitation---
Heating Degree Days54.6 (Base 65)
Averaged from 66 records on January 31, 2013
WEATHER CONDITIONS BREAKOUT
WIND DIRECTION BREAKOUT
WEATHER BY HOUR - JANUARY 31, 2013
[ °C ]   °F
Local TimeTemperatureDewpointHumidityBarometerVisibilityWind DirectionWind SpeedGust SpeedPrecipitationEventsConditions
12:35 AM17.6 °F8.6 °F68 %29.92 in10.0 miWNW (300°)10.4 mphOvercast
12:55 AM17.6 °F6.8 °F63 %29.93 in10.0 miWNW (300°)9.2 mph19.6 mphScattered Clouds
1:15 AM15.8 °F5.0 °F62 %29.93 in10.0 miWNW (300°)8.1 mphClear
1:35 AM15.8 °F5.0 °F62 %29.93 in10.0 miWNW (290°)9.2 mphClear
1:55 AM14.0 °F5.0 °F67 %29.93 in10.0 miWNW (300°)6.9 mphClear
2:15 AM14.0 °F5.0 °F67 %29.95 in10.0 miWNW (300°)5.8 mphClear
2:35 AM14.0 °F5.0 °F67 %29.96 in10.0 miNW (310°)3.5 mphScattered Clouds
2:55 AM12.2 °F3.2 °F67 %29.96 in10.0 miWNW (300°)3.5 mphScattered Clouds
3:15 AM12.2 °F3.2 °F67 %29.96 in10.0 miWNW (300°)3.5 mphClear
3:35 AM12.2 °F5.0 °F73 %29.96 in10.0 miCalmMostly Cloudy
3:55 AM14.0 °F5.0 °F67 %29.96 in10.0 miNNW (330°)8.1 mphOvercast
4:15 AM14.0 °F3.2 °F62 %29.96 in10.0 miNW (320°)13.8 mph19.6 mphOvercast
4:35 AM12.2 °F1.4 °F62 %29.97 in10.0 miNW (320°)11.5 mphOvercast
4:55 AM12.2 °F1.4 °F62 %29.98 in10.0 miNW (310°)10.4 mph16.1 mphOvercast
5:15 AM12.2 °F-0.4 °F57 %29.99 in10.0 miNW (310°)13.8 mphOvercast
5:35 AM10.4 °F-0.4 °F62 %30.00 in10.0 miNW (320°)12.7 mph18.4 mphScattered Clouds
5:55 AM10.4 °F-0.4 °F62 %30.01 in10.0 miNW (310°)10.4 mphClear
6:15 AM10.4 °F-2.2 °F57 %30.02 in10.0 miNW (310°)15.0 mph18.4 mphMostly Cloudy
6:35 AM10.4 °F-2.2 °F57 %30.02 in10.0 miNW (320°)12.7 mphOvercast
6:55 AM10.4 °F-2.2 °F57 %30.03 in10.0 miNW (320°)11.5 mphOvercast
7:15 AM8.6 °F-2.2 °F62 %30.04 in10.0 miNW (310°)12.7 mph20.7 mphScattered Clouds
7:35 AM8.6 °F-2.2 °F62 %30.04 in10.0 miWNW (300°)13.8 mph20.7 mphMostly Cloudy
7:55 AM8.6 °F-2.2 °F62 %30.06 in10.0 miWNW (300°)11.5 mph21.9 mphScattered Clouds
8:15 AM8.6 °F-4.0 °F57 %30.07 in10.0 miWNW (300°)16.1 mph21.9 mphClear
8:35 AM10.4 °F-4.0 °F52 %30.09 in10.0 miWNW (300°)9.2 mph19.6 mphClear
8:55 AM10.4 °F-2.2 °F57 %30.10 in10.0 miNNW (330°)6.9 mphClear
9:15 AM10.4 °F-2.2 °F57 %30.11 in10.0 miNW (310°)16.1 mph23.0 mphClear
9:35 AM10.4 °F-2.2 °F57 %30.12 in10.0 miNW (310°)17.3 mph26.5 mphClear
9:55 AM10.4 °F-2.2 °F57 %30.14 in7.0 miNW (310°)20.7 mph29.9 mphClear
10:15 AM12.2 °F-2.2 °F53 %30.16 in7.0 miNW (320°)18.4 mph25.3 mphClear
10:35 AM12.2 °F-2.2 °F53 %30.18 in5.0 miNW (320°)23.0 mph28.8 mphHaze
10:55 AM12.2 °F-0.4 °F57 %30.20 in3.0 miNW (320°)20.7 mph31.1 mphHaze
11:15 AM10.4 °F-0.4 °F62 %30.20 in2.0 miNW (320°)21.9 mph31.1 mphHaze
11:35 AM10.4 °F-0.4 °F62 %30.22 in4.0 miNW (310°)19.6 mph29.9 mphHaze
11:55 AM10.4 °F-2.2 °F57 %30.23 in3.0 miNW (310°)20.7 mph28.8 mphHaze
12:15 PM10.4 °F-2.2 °F57 %30.23 in7.0 miNW (310°)20.7 mph26.5 mphScattered Clouds
12:35 PM10.4 °F-0.4 °F62 %30.24 in2.5 miNW (310°)23.0 mph28.8 mphHaze
12:55 PM10.4 °F-0.4 °F62 %30.25 in3.0 miNW (310°)19.6 mph24.2 mphHaze
1:15 PM10.4 °F-0.4 °F62 %30.26 in2.0 miNW (320°)17.3 mph23.0 mphHaze
1:35 PM10.4 °F-2.2 °F57 %30.26 in5.0 miNW (310°)20.7 mph26.5 mphHaze
1:55 PM10.4 °F-2.2 °F57 %30.25 in1.5 miNW (310°)23.0 mph34.5 mphHaze
2:15 PM10.4 °F-2.2 °F57 %30.26 in4.0 miNW (310°)18.4 mph27.6 mphHaze
2:35 PM10.4 °F-2.2 °F57 %30.27 in5.0 miNW (310°)21.9 mph27.6 mphHaze
2:55 PM10.4 °F-2.2 °F57 %30.27 in5.0 miNW (320°)19.6 mph26.5 mphHaze
3:15 PM10.4 °F-2.2 °F57 %30.28 in7.0 miNW (320°)16.1 mph27.6 mphScattered Clouds
3:35 PM10.4 °F-2.2 °F57 %30.28 in5.0 miNW (310°)21.9 mph29.9 mphHaze
3:55 PM10.4 °F-4.0 °F52 %30.30 in7.0 miNW (310°)20.7 mph26.5 mphClear
4:15 PM10.4 °F-5.8 °F48 %30.30 in7.0 miNW (320°)15.0 mph27.6 mphClear
4:35 PM10.4 °F-5.8 °F48 %30.31 in10.0 miNW (310°)17.3 mph25.3 mphClear
4:55 PM10.4 °F-5.8 °F48 %30.32 in10.0 miNW (310°)15.0 mph21.9 mphClear
5:15 PM8.6 °F-5.8 °F52 %30.32 in10.0 miNW (310°)18.4 mph26.5 mphClear
5:35 PM8.6 °F-5.8 °F52 %30.33 in10.0 miWNW (300°)12.7 mphClear
6:15 PM8.6 °F-5.8 °F52 %30.34 in10.0 miNW (310°)8.1 mphClear
6:35 PM6.8 °F-5.8 °F56 %30.34 in10.0 miNW (310°)13.8 mphClear
7:15 PM6.8 °F-5.8 °F56 %30.36 in10.0 miNW (310°)5.8 mphClear
7:35 PM6.8 °F-5.8 °F56 %30.36 in10.0 miNW (310°)9.2 mphClear
7:55 PM6.8 °F-5.8 °F56 %30.38 in10.0 miNW (310°)12.7 mphClear
8:15 PM6.8 °F-7.6 °F52 %30.38 in10.0 miNW (310°)11.5 mph18.4 mphClear
8:35 PM6.8 °F-7.6 °F52 %30.38 in10.0 miNW (310°)6.9 mphClear
8:55 PM5.0 °F-7.6 °F56 %30.38 in10.0 miNW (310°)9.2 mphClear
9:15 PM5.0 °F-7.6 °F56 %30.38 in10.0 miNW (310°)8.1 mphClear
9:35 PM3.2 °F-7.6 °F61 %30.39 in10.0 miWNW (300°)4.6 mphClear
10:15 PM3.2 °F-7.6 °F61 %30.40 in10.0 miWest (280°)5.8 mphClear
10:35 PM3.2 °F-7.6 °F61 %30.41 in10.0 miWNW (300°)4.6 mphClear
11:15 PM3.2 °F-7.6 °F61 %30.42 in10.0 miWest (280°)3.5 mphClear
11:35 PM3.2 °F-9.4 °F56 %30.41 in10.0 miCalmClear
Hourly data recorded from KRDK, located miles away from Red Oak, Iowa







STORIES FROM OUR PARTNERS